Regional Weather Roundup
Issued by NWS

Home | Current Version | Previous Version | Text Only | Print | Product List | Glossary On
Versions: 1 2 3 4 5 6 7 8 9 10 11 12 13 14 15 16 17 18 19 20 21 22 23 24 25 26 27 28 29 30 31 32 33 34 35 36 37 38 39 40 41 42 43 44 45 46 47 48 49 50
000
ASUS44 KBMX 200110
RWRAL

ALABAMA REGIONAL WEATHER ROUNDUP
NATIONAL WEATHER SERVICE BIRMINGHAM AL
800 PM CDT FRI SEP 19 2014

NOTE: "FAIR" INDICATES FEW OR NO CLOUDS BELOW 12,000 FEET
WITH NO SIGNIFICANT WEATHER AND/OR OBSTRUCTIONS TO VISIBILITY.

THE REMARK "TC" DENOTES TEMPERATURE IN DEGREES CELSIUS.

ALZ001>011-014-016>018-020-200200-
NORTH ALABAMA

CITY           SKY/WX    TMP DP  RH WIND       PRES   REMARKS
MUSCLE SHOALS  CLEAR     74  66  76 CALM      30.02R
HUNTSVILLE     PTCLDY    76  67  73 SE8       30.03R
DECATUR        CLEAR     77  65  66 SE6       30.03R
HALEYVILLE     FAIR      71  68  90 CALM      30.05S
GADSDEN        CLEAR     72  66  83 CALM      30.05R
$$

ALZ012-013-022-023-030>036-040>044-200200-
WEST CENTRAL ALABAMA

CITY           SKY/WX    TMP DP  RH WIND       PRES   REMARKS
TUSCALOOSA     CLEAR     80  65  59 E3        29.99R
$$

ALZ015-024>027-033>036-040>044-200200-
CENTRAL ALABAMA

CITY           SKY/WX    TMP DP  RH WIND       PRES   REMARKS
BIRMINGHAM     PTCLDY    77  66  68 E6        30.05R
MONTGOMERY     PTCLDY    76  66  71 CALM      30.00R
SHELBY CO ARPT PTCLDY    76  66  71 CALM      30.03R
MAXWELL AFB    PTCLDY    76  66  72 S5        30.00R
GREENVILLE     FAIR      74  67  78 NE3       29.99S
$$

ALZ019-021-028-029-037-038-045>048-200200-
EAST CENTRAL ALABAMA

CITY           SKY/WX    TMP DP  RH WIND       PRES   REMARKS
ANNISTON       CLEAR     74  68  81 NE5       30.05R
ALEXANDER CITY CLEAR     76  71  84 CALM      30.04S
AUBURN         CLEAR     72  61  68 E5        30.07S
$$

ALZ051>064-200200-
SOUTHWEST ALABAMA

CITY           SKY/WX    TMP DP  RH WIND       PRES   REMARKS
MOBILE         PTCLDY    78  71  79 S5        29.97R
BROOKLEY FIELD CLEAR     81  68  64 SE13      29.97R
EVERGREEN      PTCLDY    72  69  90 CALM      29.98R
$$

ALZ049-050-065>069-200200-
SOUTHEAST ALABAMA

CITY           SKY/WX    TMP DP  RH WIND       PRES   REMARKS
DOTHAN         PTCLDY    73  68  84 CALM      30.04R
OZARK          PTCLDY    73  67  80 NE6       30.00R
TROY           PTCLDY    71  68  90 E5        30.01S
EUFAULA        FAIR      75  68  78 NE5       30.01R
$$


USA.gov is the U.S. government's official web portal to all federal, state and local government web resources and services.